| time (UTC) | temp C | wind direction | speed KPH | gust KPH | rain 1hr cm | rain 24hr cm | rain mn cm | humidity % | barometer mb |
| 20260507213102 | 16 | 62 | 6.4 | 24.1 | 0.00 | 0.66 | 0.66 | 73 | 1012.6 |
| 20260507212602 | 17 | 25 | 9.7 | 24.1 | 0.00 | 0.66 | 0.66 | 74 | 1012.5 |
| 20260507212102 | 17 | 73 | 9.7 | 30.6 | 0.00 | 0.66 | 0.66 | 75 | 1012.5 |
| 20260507211603 | 17 | 16 | 14.5 | 30.6 | 0.00 | 0.66 | 0.66 | 75 | 1012.8 |
| 20260507211103 | 17 | 24 | 9.7 | 22.5 | 0.00 | 0.66 | 0.66 | 75 | 1012.8 |
| 20260507210602 | 17 | 45 | 11.3 | 22.5 | 0.00 | 0.66 | 0.66 | 75 | 1012.9 |
| 20260507205602 | 17 | 58 | 8.0 | 25.7 | 0.00 | 0.66 | 0.66 | 75 | 1012.9 |
| 20260507205103 | 17 | 56 | 11.3 | 25.7 | 0.00 | 0.66 | 0.66 | 75 | 1012.8 |
| 20260507204602 | 17 | 78 | 8.0 | 27.4 | 0.00 | 0.66 | 0.66 | 76 | 1012.9 |
| 20260507204501 | 17 | 54 | 8.0 | 25.7 | 0.00 | 0.66 | 0.66 | 77 | 1013.0 |
| 20260507204146 | 17 | 61 | 12.9 | 27.4 | 0.00 | 0.66 | 0.66 | 76 | 1012.8 |
| 20260507203102 | 17 | 59 | 8.0 | 24.1 | 0.00 | 0.66 | 0.66 | 77 | 1013.0 |
| 20260507202603 | 17 | 49 | 8.0 | 20.9 | 0.00 | 0.66 | 0.66 | 76 | 1013.0 |
| 20260507202101 | 17 | 47 | 11.3 | 22.5 | 0.00 | 0.66 | 0.66 | 76 | 1012.9 |
| 20260507201602 | 17 | 73 | 11.3 | 25.7 | 0.00 | 0.66 | 0.66 | 76 | 1012.9 |
| 20260507201106 | 17 | 92 | 6.4 | 25.7 | 0.00 | 0.66 | 0.66 | 76 | 1012.8 |
| 20260507200604 | 17 | 41 | 6.4 | 19.3 | 0.00 | 0.66 | 0.66 | 76 | 1012.8 |
| 20260507195603 | 17 | 32 | 4.8 | 17.7 | 0.00 | 0.66 | 0.66 | 76 | 1012.9 |
| 20260507195102 | 17 | 97 | 4.8 | 17.7 | 0.00 | 0.66 | 0.66 | 76 | 1012.9 |
| 20260507194602 | 17 | 39 | 9.7 | 22.5 | 0.00 | 0.66 | 0.66 | 76 | 1012.8 |
| 20260507194102 | 17 | 14 | 9.7 | 22.5 | 0.00 | 0.66 | 0.66 | 76 | 1013.0 |
| 20260507193602 | 17 | 4 | 8.0 | 22.5 | 0.00 | 0.66 | 0.66 | 77 | 1013.0 |
| 20260507193102 | 18 | 80 | 6.4 | 16.1 | 0.00 | 0.66 | 0.66 | 76 | 1013.0 |
| 20260507192603 | 18 | 75 | 4.8 | 17.7 | 0.00 | 0.66 | 0.66 | 76 | 1013.1 |
| 20260507192059 | 18 | 48 | 8.0 | 19.3 | 0.00 | 0.66 | 0.66 | 76 | 1013.1 |
| 20260507191603 | 18 | 11 | 6.4 | 20.9 | 0.00 | 0.66 | 0.66 | 76 | 1013.1 |
| 20260507191058 | 18 | 20 | 9.7 | 20.9 | 0.00 | 0.66 | 0.66 | 76 | 1013.0 |
| 20260507190848 | 18 | 76 | 8.0 | 20.9 | 0.00 | 0.66 | 0.66 | 75 | 1013.0 |
| 20260507190355 | 18 | 27 | 9.7 | 20.9 | 0.00 | 0.66 | 0.66 | 76 | 1013.0 |
| 20260507185555 | 18 | 347 | 9.7 | 25.7 | 0.00 | 0.66 | 0.66 | 75 | 1012.9 |
| 20260507185055 | 18 | 52 | 11.3 | 25.7 | 0.00 | 0.66 | 0.66 | 75 | 1012.9 |
| 20260507184555 | 18 | 65 | 8.0 | 25.7 | 0.00 | 0.66 | 0.66 | 75 | 1012.6 |
| 20260507184056 | 18 | 48 | 11.3 | 25.7 | 0.00 | 0.66 | 0.66 | 75 | 1012.6 |
| 20260507183554 | 18 | 16 | 9.7 | 19.3 | 0.00 | 0.66 | 0.66 | 75 | 1012.5 |
| 20260507183055 | 18 | 75 | 9.7 | 20.9 | 0.00 | 0.66 | 0.66 | 75 | 1012.3 |
| 20260507182553 | 18 | 41 | 8.0 | 20.9 | 0.00 | 0.66 | 0.66 | 75 | 1012.3 |
| 20260507182051 | 18 | 8 | 8.0 | 19.3 | 0.00 | 0.66 | 0.66 | 75 | 1012.3 |
| 20260507181553 | 19 | 54 | 8.0 | 19.3 | 0.00 | 0.66 | 0.66 | 75 | 1012.3 |
| 20260507181052 | 19 | 58 | 3.2 | 19.3 | 0.00 | 0.66 | 0.66 | 74 | 1012.4 |
| 20260507180551 | 19 | 59 | 6.4 | 20.9 | 0.00 | 0.66 | 0.66 | 74 | 1012.4 |
| 20260507180051 | 19 | 347 | 6.4 | 20.9 | 0.00 | 0.66 | 0.66 | 74 | 1012.3 |
| 20260507175550 | 19 | 61 | 9.7 | 17.7 | 0.00 | 0.66 | 0.66 | 73 | 1012.4 |
| 20260507175049 | 20 | 30 | 3.2 | 17.7 | 0.00 | 0.66 | 0.66 | 73 | 1012.4 |
| 20260507174841 | 20 | 34 | 3.2 | 16.1 | 0.00 | 0.66 | 0.66 | 72 | 1012.4 |
| 20260507174046 | 20 | 23 | 9.7 | 16.1 | 0.00 | 0.66 | 0.66 | 71 | 1012.3 |
| 20260507173547 | 20 | 0 | 6.4 | 17.7 | 0.00 | 0.66 | 0.66 | 70 | 1012.3 |
| 20260507173046 | 20 | 48 | 9.7 | 17.7 | 0.00 | 0.66 | 0.66 | 69 | 1012.1 |
| 20260507172545 | 20 | 42 | 4.8 | 17.7 | 0.00 | 0.66 | 0.66 | 69 | 1012.2 |
| 20260507172154 | 21 | 27 | 11.3 | 20.9 | 0.00 | 0.66 | 0.66 | 68 | 1012.2 |
| 20260507172132 | 20 | 23 | 8.0 | 20.9 | 0.00 | 0.66 | 0.66 | 68 | 1012.3 |
| 20260507171044 | 21 | 38 | 8.0 | 19.3 | 0.00 | 0.66 | 0.66 | 67 | 1012.2 |
| 20260507170546 | 21 | 0 | 8.0 | 20.9 | 0.00 | 0.66 | 0.66 | 65 | 1012.1 |
| 20260507170043 | 21 | 23 | 9.7 | 20.9 | 0.00 | 0.66 | 0.66 | 64 | 1012.0 |
| 20260507165542 | 21 | 0 | 9.7 | 17.7 | 0.00 | 0.66 | 0.66 | 62 | 1012.1 |
| 20260507165040 | 22 | 51 | 6.4 | 14.5 | 0.00 | 0.66 | 0.66 | 59 | 1012.0 |
| 20260507164540 | 22 | 94 | 4.8 | 16.1 | 0.00 | 0.66 | 0.66 | 58 | 1011.9 |
| 20260507164037 | 22 | 0 | 6.4 | 16.1 | 0.00 | 0.66 | 0.66 | 57 | 1011.9 |
| 20260507163538 | 22 | 41 | 4.8 | 11.3 | 0.00 | 0.66 | 0.66 | 57 | 1011.9 |
| 20260507163038 | 22 | 28 | 4.8 | 11.3 | 0.00 | 0.66 | 0.66 | 57 | 1011.9 |
| 20260507162538 | 22 | 0 | 6.4 | 11.3 | 0.00 | 0.66 | 0.66 | 57 | 1012.0 |
| 20260507162037 | 22 | 1 | 3.2 | 9.7 | 0.00 | 0.66 | 0.66 | 57 | 1012.0 |
| 20260507161534 | 22 | 0 | 4.8 | 9.7 | 0.00 | 0.66 | 0.66 | 57 | 1012.1 |
| 20260507161038 | 22 | 4 | 3.2 | 11.3 | 0.00 | 0.66 | 0.66 | 58 | 1012.1 |
| 20260507160534 | 22 | 334 | 6.4 | 11.3 | 0.00 | 0.66 | 0.66 | 57 | 1012.2 |
| 20260507160035 | 23 | 38 | 3.2 | 8.0 | 0.00 | 0.66 | 0.66 | 59 | 1012.1 |
| 20260507155533 | 23 | 37 | 1.6 | 9.7 | 0.00 | 0.66 | 0.66 | 58 | 1012.2 |
| 20260507155327 | 23 | 41 | 6.4 | 11.3 | 0.00 | 0.66 | 0.66 | 57 | 1012.2 |
| 20260507154824 | 23 | 38 | 8.0 | 11.3 | 0.00 | 0.66 | 0.66 | 56 | 1012.3 |
| 20260507154034 | 23 | 44 | 3.2 | 11.3 | 0.00 | 0.66 | 0.66 | 57 | 1012.2 |
| 20260507153531 | 23 | 355 | 4.8 | 11.3 | 0.00 | 0.66 | 0.66 | 56 | 1012.2 |
| 20260507153032 | 23 | 0 | 6.4 | 11.3 | 0.00 | 0.66 | 0.66 | 56 | 1012.3 |
| 20260507152531 | 23 | 7 | 8.0 | 17.7 | 0.00 | 0.66 | 0.66 | 54 | 1012.4 |
| 20260507152031 | 23 | 345 | 6.4 | 17.7 | 0.00 | 0.66 | 0.66 | 54 | 1012.4 |
| 20260507151530 | 23 | 23 | 3.2 | 8.0 | 0.00 | 0.66 | 0.66 | 53 | 1012.4 |
| 20260507151031 | 23 | 357 | 4.8 | 8.0 | 0.00 | 0.66 | 0.66 | 53 | 1012.5 |
| 20260507150532 | 23 | 24 | 3.2 | 9.7 | 0.00 | 0.66 | 0.66 | 52 | 1012.6 |
| 20260507150031 | 23 | 44 | 6.4 | 9.7 | 0.00 | 0.66 | 0.66 | 52 | 1012.5 |
| 20260507145526 | 23 | 42 | 4.8 | 11.3 | 0.00 | 0.66 | 0.66 | 50 | 1012.4 |
| 20260507145024 | 23 | 66 | 4.8 | 16.1 | 0.00 | 0.66 | 0.66 | 49 | 1012.3 |
| 20260507144525 | 23 | 42 | 3.2 | 16.1 | 0.00 | 0.66 | 0.66 | 50 | 1012.3 |
| 20260507144022 | 23 | 75 | 6.4 | 14.5 | 0.00 | 0.66 | 0.66 | 48 | 1012.4 |
| 20260507143818 | 23 | 87 | 4.8 | 14.5 | 0.00 | 0.66 | 0.66 | 46 | 1012.4 |
| 20260507143022 | 24 | 116 | 4.8 | 14.5 | 0.00 | 0.66 | 0.66 | 46 | 1012.5 |
| 20260507142523 | 24 | 334 | 4.8 | 9.7 | 0.00 | 0.66 | 0.66 | 45 | 1012.6 |
| 20260507142021 | 24 | 45 | 3.2 | 8.0 | 0.00 | 0.66 | 0.66 | 45 | 1012.6 |
| 20260507141520 | 24 | 47 | 1.6 | 6.4 | 0.00 | 0.66 | 0.66 | 44 | 1012.8 |
| 20260507141313 | 25 | 353 | 3.2 | 4.8 | 0.00 | 0.66 | 0.66 | 45 | 1012.8 |
| 20260507140517 | 24 | 162 | 1.6 | 6.4 | 0.00 | 0.66 | 0.66 | 46 | 1012.9 |
| 20260507140019 | 23 | 162 | 3.2 | 6.4 | 0.00 | 0.66 | 0.66 | 46 | 1012.9 |
| 20260507135516 | 23 | 125 | 3.2 | 6.4 | 0.00 | 0.66 | 0.66 | 47 | 1013.0 |
| 20260507135017 | 23 | 121 | 3.2 | 6.4 | 0.00 | 0.66 | 0.66 | 45 | 1013.0 |
| 20260507134809 | 23 | 347 | 1.6 | 6.4 | 0.00 | 0.66 | 0.66 | 46 | 1013.0 |
| 20260507134014 | 23 | 347 | 3.2 | 6.4 | 0.00 | 0.66 | 0.66 | 45 | 1013.1 |
| 20260507133513 | 23 | 248 | 1.6 | 9.7 | 0.00 | 0.66 | 0.66 | 45 | 1013.1 |
| 20260507133313 | 23 | 175 | 4.8 | 16.1 | 0.00 | 0.66 | 0.66 | 44 | 1013.2 |
| 20260507132806 | 23 | 207 | 9.7 | 16.1 | 0.00 | 0.66 | 0.66 | 45 | 1013.2 |
| 20260507132016 | 23 | 192 | 4.8 | 9.7 | 0.00 | 0.66 | 0.66 | 47 | 1013.2 |
| 20260507131516 | 23 | 206 | 3.2 | 8.0 | 0.00 | 0.66 | 0.66 | 45 | 1013.2 |
| 20260507131014 | 23 | 117 | 0.0 | 9.7 | 0.00 | 0.66 | 0.66 | 45 | 1013.3 |
| 20260507130513 | 23 | 0 | 6.4 | 9.7 | 0.00 | 0.66 | 0.66 | 45 | 1013.3 |
| 20260507130014 | 23 | 238 | 1.6 | 4.8 | 0.00 | 0.66 | 0.66 | 44 | 1013.4 |
| 20260507125513 | 23 | 283 | 3.2 | 6.4 | 0.00 | 0.66 | 0.66 | 45 | 1013.5 |
| 20260507125013 | 23 | 21 | 4.8 | 14.5 | 0.00 | 0.66 | 0.66 | 45 | 1013.6 |
| 20260507124512 | 23 | 183 | 1.6 | 14.5 | 0.00 | 0.66 | 0.66 | 44 | 1013.7 |
| 20260507124019 | 23 | 285 | 3.2 | 14.5 | 0.00 | 0.66 | 0.66 | 45 | 1013.8 |
| 20260507123624 | 23 | 161 | 3.2 | 11.3 | 0.00 | 0.66 | 0.66 | 45 | 1013.8 |
| 20260507123557 | 23 | 182 | 4.8 | 14.5 | 0.00 | 0.66 | 0.66 | 46 | 1013.8 |
| 20260507122807 | 23 | 227 | 4.8 | 11.3 | 0.00 | 0.66 | 0.66 | 45 | 1013.8 |
| 20260507122010 | 23 | 157 | 1.6 | 8.0 | 0.00 | 0.66 | 0.66 | 46 | 1013.7 |
| 20260507121514 | 23 | 173 | 3.2 | 9.7 | 0.00 | 0.66 | 0.66 | 45 | 1013.8 |
| 20260507121011 | 23 | 161 | 3.2 | 9.7 | 0.00 | 0.66 | 0.66 | 45 | 1013.8 |
| 20260507120511 | 23 | 166 | 3.2 | 11.3 | 0.00 | 0.66 | 0.66 | 47 | 1013.9 |
| 20260507120011 | 23 | 204 | 6.4 | 11.3 | 0.00 | 0.66 | 0.66 | 46 | 1013.9 |
| 20260507115502 | 23 | 113 | 3.2 | 4.8 | 0.00 | 0.66 | 0.66 | 48 | 1013.9 |
| 20260507115011 | 23 | 18 | 1.6 | 6.4 | 0.00 | 0.66 | 0.66 | 51 | 1013.9 |
| 20260507114502 | 22 | 158 | 0.0 | 8.0 | 0.00 | 0.66 | 0.66 | 50 | 1013.9 |
| 20260507114305 | 22 | 182 | 4.8 | 11.3 | 0.00 | 0.66 | 0.66 | 50 | 1014.0 |
| 20260507113507 | 22 | 16 | 1.6 | 14.5 | 0.00 | 0.66 | 0.66 | 51 | 1014.2 |
| 20260507113001 | 22 | 151 | 3.2 | 16.1 | 0.00 | 0.66 | 0.66 | 52 | 1014.2 |
| 20260507112510 | 22 | 147 | 9.7 | 16.1 | 0.00 | 0.66 | 0.66 | 50 | 1014.3 |
| 20260507112002 | 22 | 176 | 6.4 | 11.3 | 0.00 | 0.66 | 0.66 | 52 | 1014.4 |
| 20260507111812 | 21 | 179 | 6.4 | 19.3 | 0.00 | 0.66 | 0.66 | 54 | 1014.4 |
| 20260507111004 | 21 | 161 | 6.4 | 19.3 | 0.00 | 0.66 | 0.66 | 53 | 1014.4 |
| 20260507110508 | 22 | 144 | 6.4 | 14.5 | 0.00 | 0.66 | 0.66 | 54 | 1014.5 |
| 20260507110011 | 22 | 89 | 3.2 | 8.0 | 0.00 | 0.66 | 0.66 | 56 | 1014.5 |
| 20260507105509 | 21 | 151 | 4.8 | 14.5 | 0.00 | 0.66 | 0.66 | 56 | 1014.5 |
| 20260507105001 | 21 | 147 | 8.0 | 16.1 | 0.00 | 0.66 | 0.66 | 56 | 1014.6 |
| 20260507104459 | 21 | 195 | 8.0 | 22.5 | 0.00 | 0.66 | 0.66 | 57 | 1014.8 |
| 20260507104001 | 21 | 154 | 11.3 | 22.5 | 0.00 | 0.66 | 0.66 | 57 | 1014.8 |
| 20260507103500 | 21 | 204 | 9.7 | 22.5 | 0.00 | 0.66 | 0.66 | 56 | 1014.8 |
| 20260507103002 | 21 | 169 | 12.9 | 22.5 | 0.00 | 0.66 | 0.66 | 56 | 1014.7 |
| 20260507102502 | 21 | 159 | 11.3 | 22.5 | 0.00 | 0.66 | 0.66 | 56 | 1014.5 |
| 20260507102257 | 21 | 172 | 9.7 | 22.5 | 0.00 | 0.66 | 0.66 | 61 | 1014.5 |
| 20260507101500 | 21 | 134 | 12.9 | 20.9 | 0.00 | 0.66 | 0.66 | 61 | 1014.5 |
| 20260507101304 | 21 | 182 | 9.7 | 20.9 | 0.00 | 0.66 | 0.66 | 63 | 1014.5 |
| 20260507100501 | 21 | 171 | 12.9 | 19.3 | 0.00 | 0.66 | 0.66 | 62 | 1014.6 |
| 20260507100000 | 21 | 145 | 11.3 | 17.7 | 0.00 | 0.66 | 0.66 | 62 | 1014.6 |
| 20260507095459 | 21 | 206 | 8.0 | 16.1 | 0.00 | 0.66 | 0.66 | 63 | 1014.6 |
| 20260507094959 | 21 | 125 | 8.0 | 17.7 | 0.00 | 0.66 | 0.66 | 63 | 1014.7 |
| 20260507094500 | 21 | 188 | 9.7 | 17.7 | 0.00 | 0.66 | 0.66 | 63 | 1014.7 |
| 20260507093959 | 20 | 237 | 4.8 | 16.1 | 0.00 | 0.66 | 0.66 | 65 | 1014.7 |
| 20260507093500 | 20 | 219 | 9.7 | 16.1 | 0.00 | 0.66 | 0.66 | 64 | 1014.8 |
| 20260507093259 | 20 | 213 | 6.4 | 16.1 | 0.00 | 0.66 | 0.66 | 65 | 1014.6 |
| 20260507092459 | 20 | 237 | 4.8 | 16.1 | 0.00 | 0.66 | 0.66 | 64 | 1014.6 |
| 20260507092117 | 20 | 186 | 11.3 | 17.7 | 0.00 | 0.66 | 0.66 | 65 | 1014.7 |
| 20260507092043 | 20 | 238 | 3.2 | 17.7 | 0.00 | 0.66 | 0.66 | 65 | 1014.6 |
| 20260507090959 | 20 | 175 | 8.0 | 16.1 | 0.00 | 0.66 | 0.66 | 65 | 1014.8 |
| 20260507090459 | 20 | 165 | 8.0 | 16.1 | 0.00 | 0.66 | 0.66 | 65 | 1014.7 |
| 20260507090000 | 20 | 266 | 4.8 | 9.7 | 0.00 | 0.66 | 0.66 | 66 | 1014.7 |
| 20260507085803 | 20 | 264 | 1.6 | 9.7 | 0.00 | 0.66 | 0.66 | 67 | 1014.8 |
| 20260507085000 | 20 | 241 | 6.4 | 9.7 | 0.00 | 0.66 | 0.66 | 68 | 1014.9 |
| 20260507084453 | 19 | 243 | 1.6 | 9.7 | 0.00 | 0.66 | 0.66 | 69 | 1014.8 |
| 20260507083949 | 19 | 289 | 4.8 | 9.7 | 0.00 | 0.66 | 0.66 | 68 | 1014.8 |
| 20260507083449 | 18 | 331 | 3.2 | 16.1 | 0.00 | 0.66 | 0.66 | 69 | 1014.9 |
| 20260507082947 | 18 | 298 | 6.4 | 16.1 | 0.00 | 0.66 | 0.66 | 67 | 1015.2 |
| 20260507082448 | 19 | 286 | 6.4 | 14.5 | 0.00 | 0.66 | 0.66 | 69 | 1015.2 |
| 20260507081947 | 19 | 343 | 6.4 | 16.1 | 0.00 | 0.66 | 0.66 | 71 | 1015.1 |
| 20260507081446 | 19 | 334 | 6.4 | 16.1 | 0.00 | 0.66 | 0.66 | 68 | 1014.9 |
| 20260507080949 | 19 | 276 | 1.6 | 4.8 | 0.00 | 0.66 | 0.66 | 70 | 1014.9 |
| 20260507080446 | 18 | 276 | 1.6 | 4.8 | 0.00 | 0.66 | 0.66 | 71 | 1014.9 |
| 20260507075942 | 18 | 251 | 3.2 | 4.8 | 0.00 | 0.66 | 0.66 | 71 | 1014.9 |
| 20260507075443 | 18 | 206 | 0.0 | 0.0 | 0.00 | 0.66 | 0.66 | 72 | 1014.8 |
| 20260507075244 | 18 | 213 | 0.0 | 1.6 | 0.00 | 0.66 | 0.66 | 73 | 1014.9 |
| 20260507074438 | 18 | 100 | 0.0 | 3.2 | 0.00 | 0.66 | 0.66 | 75 | 1014.9 |
| 20260507073939 | 17 | 100 | 1.6 | 4.8 | 0.00 | 0.66 | 0.66 | 76 | 1014.9 |
| 20260507073742 | 17 | 100 | 3.2 | 4.8 | 0.00 | 0.66 | 0.66 | 77 | 1014.9 |
| 20260507072935 | 17 | 48 | 1.6 | 4.8 | 0.00 | 0.66 | 0.66 | 79 | 1014.9 |
| 20260507072433 | 16 | 48 | 1.6 | 4.8 | 0.00 | 0.66 | 0.66 | 80 | 1015.1 |
| 20260507071933 | 16 | 48 | 0.0 | 4.8 | 0.00 | 0.66 | 0.66 | 81 | 1015.1 |
| 20260507071433 | 16 | 188 | 0.0 | 3.2 | 0.00 | 0.66 | 0.66 | 82 | 1015.1 |
| 20260507070933 | 16 | 188 | 0.0 | 4.8 | 0.00 | 0.66 | 0.66 | 83 | 1014.9 |
| 20260507070432 | 15 | 188 | 3.2 | 4.8 | 0.00 | 0.66 | 0.66 | 84 | 1015.1 |
| 20260507065931 | 15 | 110 | 0.0 | 4.8 | 0.00 | 0.66 | 0.66 | 86 | 1014.9 |
| 20260507065431 | 15 | 110 | 0.0 | 4.8 | 0.00 | 0.66 | 0.66 | 87 | 1014.9 |
| 20260507064931 | 15 | 141 | 3.2 | 6.4 | 0.00 | 0.66 | 0.66 | 87 | 1014.9 |
| 20260507064432 | 15 | 138 | 1.6 | 6.4 | 0.00 | 0.66 | 0.66 | 89 | 1014.8 |
| 20260507063933 | 15 | 113 | 1.6 | 4.8 | 0.00 | 0.66 | 0.66 | 89 | 1014.8 |
| 20260507063431 | 15 | 124 | 1.6 | 4.8 | 0.00 | 0.66 | 0.66 | 90 | 1014.8 |
| 20260507062931 | 14 | 134 | 1.6 | 4.8 | 0.00 | 0.66 | 0.66 | 90 | 1014.9 |
| 20260507062431 | 14 | 281 | 0.0 | 4.8 | 0.00 | 0.66 | 0.66 | 89 | 1014.8 |
| 20260507061931 | 14 | 281 | 0.0 | 4.8 | 0.00 | 0.66 | 0.66 | 90 | 1014.8 |
| 20260507061431 | 14 | 281 | 0.0 | 3.2 | 0.00 | 0.66 | 0.66 | 90 | 1014.9 |
| 20260507060932 | 13 | 281 | 0.0 | 1.6 | 0.00 | 0.66 | 0.66 | 90 | 1014.9 |
| 20260507060431 | 13 | 281 | 0.0 | 1.6 | 0.00 | 0.66 | 0.66 | 90 | 1015.1 |
| 20260507055930 | 13 | 281 | 0.0 | 0.0 | 0.00 | 0.66 | 0.66 | 90 | 1015.1 |
| 20260507055432 | 13 | 281 | 0.0 | 3.2 | 0.00 | 0.66 | 0.66 | 90 | 1015.1 |
| 20260507054930 | 13 | 281 | 0.0 | 3.2 | 0.00 | 0.66 | 0.66 | 89 | 1015.1 |
| 20260507054431 | 13 | 281 | 3.2 | 3.2 | 0.00 | 0.66 | 0.66 | 89 | 1014.9 |
| 20260507053930 | 13 | 281 | 0.0 | 0.0 | 0.00 | 0.66 | 0.66 | 90 | 1014.8 |
| 20260507053431 | 13 | 281 | 0.0 | 0.0 | 0.00 | 0.66 | 0.66 | 90 | 1014.8 |
| 20260507052932 | 13 | 281 | 0.0 | 0.0 | 0.00 | 0.66 | 0.66 | 89 | 1014.7 |
| 20260507052432 | 13 | 281 | 0.0 | 1.6 | 0.00 | 0.66 | 0.66 | 89 | 1014.7 |
| 20260507052237 | 13 | 281 | 0.0 | 4.8 | 0.00 | 0.66 | 0.66 | 89 | 1014.6 |
| 20260507051734 | 13 | 281 | 0.0 | 4.8 | 0.00 | 0.66 | 0.66 | 89 | 1014.6 |
| 20260507051236 | 12 | 281 | 0.0 | 4.8 | 0.00 | 0.66 | 0.66 | 89 | 1014.6 |
| 20260507050430 | 12 | 281 | 0.0 | 4.8 | 0.00 | 0.66 | 0.66 | 89 | 1014.5 |
| 20260507050235 | 12 | 281 | 1.6 | 4.8 | 0.00 | 0.66 | 0.66 | 89 | 1014.5 |
| 20260507045429 | 12 | 281 | 1.6 | 6.4 | 0.00 | 0.66 | 0.66 | 90 | 1014.4 |
| 20260507044928 | 12 | 281 | 1.6 | 9.7 | 0.00 | 0.66 | 0.66 | 90 | 1014.4 |
| 20260507044427 | 12 | 309 | 4.8 | 9.7 | 0.00 | 0.66 | 0.66 | 90 | 1014.3 |
| 20260507043928 | 12 | 282 | 4.8 | 6.4 | 0.00 | 0.66 | 0.66 | 90 | 1014.3 |
| 20260507043426 | 12 | 283 | 0.0 | 4.8 | 0.00 | 0.66 | 0.66 | 90 | 1014.3 |
| 20260507042925 | 12 | 283 | 3.2 | 4.8 | 0.00 | 0.66 | 0.66 | 90 | 1014.2 |
| 20260507042426 | 12 | 279 | 1.6 | 6.4 | 0.00 | 0.66 | 0.66 | 89 | 1014.3 |
| 20260507041924 | 12 | 168 | 1.6 | 6.4 | 0.00 | 0.66 | 0.66 | 90 | 1014.4 |
| 20260507041423 | 12 | 286 | 3.2 | 6.4 | 0.00 | 0.66 | 0.66 | 89 | 1014.3 |
| 20260507040924 | 12 | 324 | 1.6 | 6.4 | 0.00 | 0.66 | 0.66 | 89 | 1014.3 |
| 20260507040421 | 12 | 202 | 0.0 | 8.0 | 0.00 | 0.66 | 0.66 | 89 | 1014.3 |
| 20260507035921 | 12 | 202 | 4.8 | 8.0 | 0.00 | 0.66 | 0.66 | 89 | 1014.3 |
| 20260507035421 | 12 | 179 | 3.2 | 9.7 | 0.00 | 0.66 | 0.66 | 89 | 1014.2 |
| 20260507034919 | 13 | 288 | 6.4 | 9.7 | 0.00 | 0.66 | 0.66 | 89 | 1014.1 |
| 20260507034421 | 13 | 299 | 6.4 | 9.7 | 0.00 | 0.66 | 0.66 | 89 | 1014.2 |
| 20260507033919 | 13 | 289 | 4.8 | 9.7 | 0.00 | 0.66 | 0.66 | 89 | 1014.3 |
| 20260507033418 | 13 | 286 | 4.8 | 14.5 | 0.00 | 0.66 | 0.66 | 88 | 1014.3 |
| 20260507032918 | 13 | 252 | 6.4 | 14.5 | 0.00 | 0.66 | 0.66 | 88 | 1014.3 |
| 20260507032417 | 13 | 197 | 6.4 | 11.3 | 0.03 | 0.66 | 0.66 | 88 | 1014.3 |
| 20260507031916 | 13 | 140 | 4.8 | 6.4 | 0.03 | 0.66 | 0.66 | 88 | 1014.3 |
| 20260507031415 | 13 | 159 | 4.8 | 6.4 | 0.03 | 0.66 | 0.66 | 88 | 1014.3 |
| 20260507030916 | 13 | 285 | 0.0 | 6.4 | 0.05 | 0.66 | 0.66 | 88 | 1014.5 |
| 20260507030412 | 13 | 285 | 3.2 | 8.0 | 0.05 | 0.66 | 0.66 | 88 | 1014.4 |
| 20260507025918 | 13 | 300 | 4.8 | 8.0 | 0.05 | 0.61 | 0.66 | 87 | 1014.5 |
| 20260507025413 | 13 | 298 | 3.2 | 8.0 | 0.05 | 0.61 | 0.66 | 87 | 1014.6 |
| 20260507024912 | 13 | 320 | 4.8 | 9.7 | 0.05 | 0.61 | 0.66 | 87 | 1014.5 |
| 20260507024721 | 13 | 202 | 6.4 | 14.5 | 0.08 | 0.61 | 0.66 | 87 | 1014.6 |
| 20260507023910 | 13 | 216 | 8.0 | 14.5 | 0.08 | 0.61 | 0.66 | 87 | 1014.8 |
| 20260507023411 | 13 | 243 | 6.4 | 11.3 | 0.10 | 0.61 | 0.66 | 87 | 1015.1 |
| 20260507022909 | 13 | 251 | 8.0 | 11.3 | 0.13 | 0.61 | 0.66 | 87 | 1015.1 |
| 20260507022410 | 13 | 261 | 6.4 | 11.3 | 0.13 | 0.61 | 0.64 | 87 | 1015.1 |
| 20260507021909 | 13 | 216 | 6.4 | 19.3 | 0.15 | 0.61 | 0.64 | 87 | 1015.1 |
| 20260507021409 | 13 | 216 | 9.7 | 19.3 | 0.15 | 0.61 | 0.64 | 87 | 1015.1 |
| 20260507020907 | 13 | 199 | 9.7 | 17.7 | 0.15 | 0.61 | 0.61 | 87 | 1015.2 |
| 20260507020405 | 13 | 192 | 12.9 | 17.7 | 0.18 | 0.61 | 0.61 | 87 | 1014.9 |
| 20260507015905 | 13 | 220 | 6.4 | 11.3 | 0.20 | 0.43 | 0.61 | 88 | 1014.8 |
| 20260507015405 | 13 | 265 | 3.2 | 11.3 | 0.20 | 0.43 | 0.61 | 88 | 1014.6 |
| 20260507014903 | 13 | 258 | 4.8 | 16.1 | 0.20 | 0.43 | 0.61 | 88 | 1014.7 |
| 20260507014404 | 13 | 209 | 8.0 | 20.9 | 0.20 | 0.43 | 0.58 | 88 | 1014.7 |
| 20260507013903 | 13 | 210 | 9.7 | 20.9 | 0.23 | 0.43 | 0.56 | 87 | 1014.8 |
| 20260507013720 | 13 | 186 | 9.7 | 17.7 | 0.23 | 0.43 | 0.56 | 87 | 1014.8 |
| 20260507012905 | 13 | 216 | 6.4 | 11.3 | 0.20 | 0.43 | 0.53 | 87 | 1014.9 |
| 20260507012404 | 13 | 226 | 6.4 | 11.3 | 0.23 | 0.43 | 0.51 | 87 | 1014.8 |
| 20260507011904 | 13 | 259 | 3.2 | 9.7 | 0.23 | 0.43 | 0.51 | 87 | 1014.8 |
| 20260507011711 | 13 | 300 | 1.6 | 4.8 | 0.23 | 0.43 | 0.48 | 87 | 1014.8 |
| 20260507010903 | 13 | 299 | 1.6 | 4.8 | 0.23 | 0.43 | 0.46 | 87 | 1014.8 |
| 20260507010403 | 13 | 169 | 1.6 | 4.8 | 0.25 | 0.43 | 0.43 | 86 | 1014.8 |
| 20260507005902 | 13 | 258 | 1.6 | 9.7 | 0.25 | 0.15 | 0.43 | 86 | 1014.7 |
| 20260507005403 | 13 | 217 | 4.8 | 9.7 | 0.25 | 0.15 | 0.41 | 86 | 1014.9 |
| 20260507004905 | 13 | 220 | 3.2 | 8.0 | 0.28 | 0.15 | 0.41 | 85 | 1014.8 |
| 20260507004403 | 13 | 243 | 3.2 | 4.8 | 0.25 | 0.15 | 0.38 | 85 | 1014.8 |
| 20260507003902 | 13 | 252 | 0.0 | 4.8 | 0.25 | 0.15 | 0.36 | 85 | 1014.9 |
| 20260507003722 | 13 | 186 | 0.0 | 4.8 | 0.23 | 0.15 | 0.33 | 85 | 1015.1 |
| 20260507002902 | 12 | 157 | 0.0 | 9.7 | 0.25 | 0.15 | 0.33 | 85 | 1015.1 |
| 20260507002403 | 12 | 157 | 1.6 | 11.3 | 0.23 | 0.15 | 0.30 | 85 | 1015.3 |
| 20260507001902 | 12 | 212 | 6.4 | 11.3 | 0.18 | 0.15 | 0.25 | 86 | 1015.4 |
| 20260507001402 | 12 | 231 | 0.0 | 4.8 | 0.18 | 0.15 | 0.23 | 85 | 1015.4 |
| 20260507000908 | 12 | 265 | 3.2 | 4.8 | 0.15 | 0.15 | 0.23 | 85 | 1015.4 |
| 20260507000402 | 12 | 265 | 1.6 | 6.4 | 0.13 | 0.15 | 0.18 | 84 | 1015.4 |
| 20260506235902 | 12 | 265 | 3.2 | 6.4 | 0.13 | 0.05 | 0.15 | 84 | 1015.3 |
| 20260506235401 | 12 | 228 | 0.0 | 4.8 | 0.10 | 0.05 | 0.15 | 84 | 1015.4 |
| 20260506234904 | 12 | 196 | 0.0 | 3.2 | 0.08 | 0.05 | 0.13 | 84 | 1015.4 |
| 20260506234402 | 12 | 196 | 0.0 | 4.8 | 0.10 | 0.05 | 0.13 | 83 | 1015.4 |
| 20260506233902 | 12 | 196 | 0.0 | 4.8 | 0.08 | 0.05 | 0.10 | 83 | 1015.4 |
| 20260506233402 | 12 | 196 | 0.0 | 3.2 | 0.08 | 0.05 | 0.10 | 83 | 1015.5 |
| 20260506232903 | 12 | 196 | 0.0 | 6.4 | 0.08 | 0.05 | 0.08 | 82 | 1015.5 |
| 20260506232402 | 12 | 196 | 1.6 | 6.4 | 0.08 | 0.05 | 0.08 | 82 | 1015.5 |
| 20260506231902 | 12 | 220 | 3.2 | 8.0 | 0.08 | 0.05 | 0.08 | 81 | 1015.7 |
| 20260506231402 | 13 | 193 | 3.2 | 8.0 | 0.05 | 0.05 | 0.05 | 81 | 1015.7 |
| 20260506230902 | 13 | 258 | 0.0 | 0.0 | 0.05 | 0.05 | 0.05 | 80 | 1015.6 |
| 20260506230402 | 13 | 258 | 0.0 | 3.2 | 0.05 | 0.05 | 0.05 | 80 | 1015.7 |
| 20260506225902 | 13 | 258 | 0.0 | 3.2 | 0.05 | 0.00 | 0.05 | 79 | 1015.8 |
| 20260506225403 | 13 | 258 | 0.0 | 3.2 | 0.05 | 0.00 | 0.05 | 78 | 1015.9 |
| 20260506224905 | 13 | 258 | 1.6 | 3.2 | 0.05 | 0.00 | 0.05 | 77 | 1016.0 |
| 20260506224402 | 13 | 247 | 0.0 | 3.2 | 0.03 | 0.00 | 0.03 | 76 | 1016.0 |
| 20260506223902 | 13 | 247 | 0.0 | 4.8 | 0.03 | 0.00 | 0.03 | 75 | 1016.0 |
| 20260506223402 | 13 | 247 | 1.6 | 4.8 | 0.03 | 0.00 | 0.03 | 74 | 1016.1 |
| 20260506222906 | 14 | 214 | 0.0 | 8.0 | 0.00 | 0.00 | 0.00 | 72 | 1016.0 |
| 20260506222402 | 14 | 227 | 3.2 | 9.7 | 0.00 | 0.00 | 0.00 | 71 | 1016.1 |
| 20260506221902 | 14 | 228 | 1.6 | 9.7 | 0.00 | 0.00 | 0.00 | 71 | 1016.0 |
| 20260506221402 | 14 | 237 | 3.2 | 8.0 | 0.00 | 0.00 | 0.00 | 71 | 1016.1 |
| 20260506220902 | 13 | 237 | 3.2 | 8.0 | 0.00 | 0.00 | 0.00 | 71 | 1015.9 |
| 20260506220408 | 13 | 223 | 3.2 | 9.7 | 0.00 | 0.00 | 0.00 | 71 | 1015.9 |
| 20260506220208 | 13 | 216 | 3.2 | 9.7 | 0.00 | 0.00 | 0.00 | 71 | 1016.0 |
| 20260506215402 | 13 | 231 | 1.6 | 6.4 | 0.00 | 0.00 | 0.00 | 69 | 1016.0 |
| 20260506214902 | 13 | 223 | 3.2 | 6.4 | 0.00 | 0.00 | 0.00 | 69 | 1016.0 |
| 20260506214403 | 13 | 275 | 0.0 | 8.0 | 0.00 | 0.00 | 0.00 | 70 | 1016.0 |
| 20260506213902 | 13 | 275 | 1.6 | 8.0 | 0.00 | 0.00 | 0.00 | 69 | 1016.0 |